Helicity
39 48 45 60 51 43 45 38 31 19 5 4 8 12 13 19 32 35 39 38 43 59 56 53 63 76 88 96 95 87 71 83
60 48 44 54 47 47 42 46 32 22 25 24 19 21 14 18 19 32 29 29 29 34 26 40 53 44 52 63 73 76 62 71
62 53 45 41 46 39 43 42 43 39 35 29 21 17 17 12 15 25 35 29 32 29 33 24 21 20 38 41 52 62 60 34
90 73 58 50 54 41 39 41 39 44 22 37 27 19 31 24 32 36 30 29 27 26 23 25 23 18 19 16 27 39 42 41
107 90 75 66 57 49 33 38 33 44 36 43 37 48 48 28 31 21 17 24 17 12 8 13 14 8 24 20 21 17 24 31
129 107 107 66 86 49 40 37 37 40 30 26 30 45 35 34 32 22 27 14 10 10 5 5 3 -6 3 9 20 31 30 23
146 128 110 100 78 47 32 22 34 45 32 23 20 19 17 23 21 15 25 15 10 17 11 3 1 13 11 -2 -1 11 26 31
157 146 114 99 102 66 42 33 31 42 42 32 25 20 19 8 18 19 20 10 14 16 13 6 2 7 7 6 12 6 9 29
151 144 126 128 95 67 53 35 35 47 43 39 29 24 27 24 14 22 24 19 10 30 13 16 16 14 16 13 8 14 16 31
143 147 139 118 104 87 67 51 40 41 48 49 45 38 37 38 33 40 42 42 34 43 76 45 28 18 11 18 31 39 36 34
153 143 145 104 103 91 86 66 67 97 108 85 82 71 78 77 75 73 81 78 69 63 58 52 52 47 37 32 36 30 39 57
141 138 138 160 121 127 142 136 135 150 123 120 111 110 111 112 118 138 146 152 128 110 91 79 64 60 59 59 54 43 45 52
150 182 188 174 173 175 202 175 169 157 137 134 130 132 130 138 153 158 162 144 133 119 109 99 95 86 85 88 79 78 76 76
227 241 233 237 216 209 219 205 188 164 151 153 157 147 146 151 155 150 130 112 108 100 107 116 114 123 111 98 86 83 94 98
269 257 252 238 224 219 220 212 177 168 155 140 140 132 130 128 125 116 109 112 110 110 115 113 116 110 121 122 139 218 228 177
261 250 237 219 212 206 205 183 156 132 115 111 120 130 114 105 102 93 89 92 98 110 119 125 143 152 143 249 255 239 224 203
280 254 217 208 206 198 156 138 122 103 94 101 122 122 108 110 109 112 116 119 128 123 123 140 162 175 216 210 217 204 177 179
249 236 207 203 181 150 151 115 91 102 116 115 115 116 119 117 116 115 119 126 115 120 122 139 148 121 122 105 149 132 132 139
222 219 183 167 161 146 109 111 117 127 108 106 125 118 111 116 124 130 140 132 120 110 98 84 105 96 79 87 75 70 117 105
Wind_Speed
33 37 40 44 46 48 49 51 51 49 49 47 48 49 50 50 52 55 57 58 59 59 57 59 59 57 58 60 59 59 57 62
32 34 37 39 42 45 47 49 51 50 51 51 51 51 51 51 52 54 57 57 59 57 57 58 60 56 59 60 61 60 57 61
28 30 33 37 38 41 44 46 49 51 50 50 47 49 49 51 52 53 55 56 57 57 58 58 59 58 59 60 61 60 58 59
23 26 29 32 36 37 40 44 46 49 50 51 51 47 49 53 54 56 54 56 55 56 57 57 58 57 59 59 59 60 59 58
21 23 26 29 33 35 36 40 43 46 49 49 50 51 52 52 54 55 55 54 54 55 56 56 57 56 57 58 58 58 57 57
17 20 23 26 32 33 34 35 38 41 44 47 50 52 53 53 55 56 55 54 54 55 57 57 57 57 58 59 59 59 58 56
15 19 22 25 29 30 31 34 36 37 40 44 47 49 53 56 57 58 58 57 57 56 60 59 59 60 61 61 61 60 60 59
11 16 20 25 27 28 29 31 35 38 41 44 47 50 54 55 59 60 64 64 63 62 64 62 63 62 62 63 64 63 61 62
8 14 19 23 26 28 30 34 38 43 46 50 52 54 55 58 60 65 67 68 67 69 67 67 69 69 68 67 66 65 64 63
7 13 17 22 25 28 32 37 41 46 50 53 55 57 59 61 65 66 69 72 73 75 76 76 74 73 74 75 74 73 70 67
7 12 16 21 27 32 35 40 45 50 53 54 56 59 60 63 64 67 70 73 77 80 82 81 81 80 79 79 78 77 77 74
8 12 18 25 29 35 38 43 48 51 54 56 59 62 65 66 68 70 72 74 75 77 79 81 83 83 83 83 83 84 83 82
11 16 20 24 30 36 40 45 49 53 56 59 61 65 68 71 72 73 74 76 77 78 79 80 80 82 83 85 86 87 88 89
18 21 22 26 33 38 43 48 52 56 60 63 64 69 72 74 75 75 76 79 80 82 83 84 86 87 88 88 89 90 88 88
18 22 26 31 35 40 46 51 54 59 62 65 68 71 74 77 79 80 82 82 83 83 84 86 88 90 90 91 93 94 96 95
23 27 30 34 39 44 50 53 57 61 66 69 72 74 76 78 79 82 83 84 84 87 89 89 89 90 86 91 95 98 101 105
26 31 33 38 43 48 52 57 61 65 69 72 73 75 78 81 83 84 86 88 90 91 92 92 92 90 95 96 102 105 107 110
31 36 37 41 47 51 56 62 65 67 71 73 74 78 81 84 86 89 90 92 92 93 92 93 96 95 95 100 97 98 106 107
31 36 39 44 50 55 60 65 69 70 73 74 78 82 84 85 88 89 91 92 93 95 95 95 96 97 97 97 96 99 104 104
Wind_Direction
61 50 40 29 23 20 15 8 4 6 5 7 5 6 4 3 3 2 1 2 1 359 359 353 344 341 335 331 330 328 325 322
57 50 45 39 32 28 25 20 9 5 1 1 357 356 355 357 358 360 359 359 359 360 356 353 350 350 341 335 330 327 328 329
51 47 44 38 36 32 28 24 18 10 7 1 1 359 360 359 357 357 357 356 356 354 354 351 347 346 347 343 337 331 327 331
49 45 40 37 31 30 28 24 20 14 6 4 358 359 358 354 352 351 352 352 354 354 352 351 349 347 345 343 341 338 333 332
49 46 40 33 28 26 26 23 19 16 10 8 4 359 355 354 352 349 347 351 350 350 346 343 344 343 344 337 335 334 337 335
52 46 40 31 24 22 22 24 20 17 12 7 1 357 352 348 346 343 346 345 344 343 340 339 336 333 334 334 329 331 331 332
46 38 33 26 21 20 18 14 11 12 8 1 356 352 348 343 340 337 336 336 335 336 335 334 333 331 328 326 326 326 325 324
35 27 23 17 17 17 14 12 6 2 357 353 350 346 341 338 334 332 329 326 326 326 327 327 327 328 327 326 324 322 324 322
28 22 15 14 13 12 10 5 359 356 351 346 342 340 338 334 331 326 324 322 321 320 320 319 318 318 318 319 320 320 319 319
24 15 11 6 7 4 0 356 351 348 345 343 340 337 335 332 329 325 322 319 317 315 314 313 313 313 312 311 312 312 313 313
21 6 3 358 358 354 353 350 346 345 345 344 343 341 339 336 333 330 326 322 318 315 312 311 310 309 309 308 307 307 306 306
12 1 358 353 351 350 352 350 347 345 344 343 342 340 338 336 335 332 330 327 325 321 318 314 311 310 309 307 305 304 302 302
12 4 358 354 353 351 349 348 346 344 342 341 340 338 336 334 333 331 330 327 325 323 321 318 316 313 311 310 307 305 302 300
359 360 1 358 353 348 346 346 345 343 340 338 337 335 334 333 332 331 329 326 324 322 320 318 315 314 311 309 307 306 304 302
357 357 356 354 351 348 345 344 344 341 339 337 335 334 333 331 330 329 327 326 324 323 321 318 316 314 313 311 309 308 306 303
343 346 350 351 348 347 344 343 341 339 336 335 333 333 333 332 331 329 328 327 325 323 321 319 318 316 315 315 313 309 306 303
344 345 347 347 345 344 342 340 338 337 335 334 334 334 333 331 330 329 327 326 324 323 321 320 318 317 315 314 313 310 307 304
339 339 343 345 344 342 340 338 337 336 335 334 333 333 332 330 329 328 327 326 325 323 322 321 319 317 316 313 311 310 309 305
342 343 344 344 342 340 339 337 336 335 334 333 333 332 331 330 329 329 328 327 326 324 322 321 319 317 317 315 313 311 308 307